Wind_Speed
16 16 16 16 14 14 13 12 10 8 7 5 2 1 2 4 6 6 6 8 9 10 10 11 12 12 13 15 16 17 18 18 21 36 29 29 29 31 33 32 32 31 34
18 18 16 15 15 14 13 12 11 9 7 6 2 1 2 4 6 6 6 8 9 10 11 12 12 13 15 15 16 18 20 21 23 29 35 30 28 30 33 37 35 31 31
21 19 17 17 17 16 14 13 12 11 9 6 4 3 4 5 6 6 7 8 9 10 11 13 14 15 16 16 17 19 20 21 22 25 36 30 30 29 31 32 32 34 31
23 22 21 20 18 17 17 16 14 12 11 8 6 5 5 7 7 8 9 9 11 11 12 13 13 14 15 17 18 18 19 21 23 25 29 32 29 29 28 28 29 28 31
25 24 24 23 21 19 19 19 17 15 12 10 8 6 7 8 9 10 10 10 12 12 12 13 14 15 16 17 18 20 21 21 23 25 27 28 27 27 25 27 28 31 30
27 27 25 24 24 25 24 22 19 16 14 12 10 9 9 10 12 12 11 11 12 12 13 13 14 16 15 17 18 19 21 25 26 26 27 26 30 30 29 28 27 27 21
30 30 29 28 29 29 26 23 22 19 16 15 12 12 12 12 14 12 12 12 12 13 14 14 15 14 17 18 20 22 24 24 28 32 33 32 32 30 31 31 28 28 29
32 31 33 32 32 30 27 26 23 21 20 16 15 14 14 14 15 14 13 13 13 14 14 14 15 17 17 20 25 27 28 28 30 32 34 36 35 36 35 36 35 36 35
31 32 35 36 35 32 31 30 26 22 20 18 17 16 17 16 16 15 12 13 13 14 14 14 15 18 18 22 26 28 30 28 28 29 33 39 40 39 37 35 28 25 24
31 33 34 35 35 34 36 32 27 23 21 19 19 18 18 19 16 16 13 13 15 15 14 14 16 17 19 23 26 29 31 31 33 33 32 31 32 31 29 30 30 27 26
27 28 29 30 32 32 32 29 26 23 20 20 20 20 20 20 19 16 14 14 14 15 16 16 16 17 20 24 28 27 27 31 31 30 29 27 25 24 23 22 23 25 26
23 24 25 26 26 28 28 27 25 22 22 21 20 20 20 20 19 16 14 15 15 18 19 18 18 18 20 26 25 22 24 25 23 22 23 24 24 24 23 23 26 29 29
21 22 23 22 23 24 24 26 23 22 22 20 19 18 17 17 18 15 15 15 15 17 19 19 19 17 21 21 17 19 18 17 18 20 22 23 23 26 28 27 27 27 27
20 20 20 21 22 23 23 24 24 24 23 22 18 18 17 16 16 15 14 13 14 15 17 18 16 17 16 15 15 14 15 15 17 20 21 25 27 26 26 24 26 26 26
18 20 20 21 23 24 25 26 27 26 24 22 21 20 16 15 15 14 13 14 15 18 14 16 18 18 14 13 13 14 15 16 17 18 21 24 26 25 26 25 24 25 24
20 19 19 20 19 20 18 18 19 19 16 18 18 19 20 18 16 16 18 18 19 16 13 15 14 13 13 13 13 15 15 16 16 20 21 22 24 25 25 27 25 23 24
17 14 13 14 12 12 12 12 10 11 15 19 20 22 23 24 22 22 21 19 19 15 15 14 14 13 13 13 14 15 17 17 20 19 20 23 24 24 25 25 25 24 25
11 8 8 7 8 8 9 9 10 11 12 14 14 17 19 20 21 21 21 21 17 14 17 16 15 15 15 14 15 16 18 20 20 20 22 23 24 24 25 24 25 24 25
7 5 6 6 6 7 7 8 10 12 14 16 16 17 19 18 20 21 21 22 18 16 17 17 16 17 17 17 18 19 20 21 22 23 22 22 24 24 25 25 26 27 26
5 5 4 3 4 5 7 8 10 12 14 15 16 17 15 17 19 20 21 21 21 21 19 19 18 18 19 18 19 20 21 21 21 21 23 23 24 24 25 26 26 26 26
3 2 3 4 5 7 7 9 11 13 15 17 18 16 18 21 19 16 16 17 18 20 19 19 19 19 19 19 18 19 20 21 22 22 23 24 24 26 25 25 25 25 25
0 2 3 4 6 6 8 9 11 13 15 17 18 18 19 22 20 20 17 16 20 21 20 20 20 20 19 19 18 20 21 22 22 21 23 25 27 27 24 25 24 24 24
1 2 3 4 5 6 7 9 10 13 15 17 18 18 18 18 18 19 18 18 21 21 20 20 20 21 20 19 19 19 21 22 21 21 23 25 26 25 24 24 23 23 22
1 0 2 3 4 6 7 9 11 14 17 18 20 19 19 18 18 18 18 19 20 21 20 20 20 20 20 20 20 20 21 20 19 21 20 22 23 21 23 22 22 23 21
2 3 4 4 6 7 9 11 12 14 15 16 17 18 18 18 18 19 19 20 20 20 21 21 21 21 20 21 21 20 20 18 18 18 17 19 20 19 17 18 19 20 21
4 6 6 6 8 9 11 12 14 15 15 16 17 17 17 17 18 18 18 19 20 20 20 21 21 21 21 22 21 20 18 17 17 16 14 19 18 16 14 15 16 17 18
Wind_Direction
167 167 161 161 159 155 152 147 147 147 148 146 141 71 359 338 349 354 344 340 335 329 329 323 321 319 315 311 308 304 299 299 293 296 296 301 303 303 303 302 303 302 299
177 175 172 173 171 167 161 164 168 163 169 175 178 258 319 319 333 333 337 323 326 321 318 316 315 317 315 314 313 310 306 304 301 301 302 307 305 305 302 301 300 300 299
184 181 182 183 183 177 177 179 178 182 190 194 199 242 282 304 316 315 315 317 314 309 309 310 312 316 313 312 310 307 306 304 302 298 300 307 307 310 309 304 303 301 300
188 189 192 193 191 186 190 193 192 196 202 207 218 245 277 297 307 302 312 308 303 301 301 302 304 305 304 306 309 307 309 310 307 303 300 305 308 310 308 308 306 305 306
192 194 197 198 196 194 198 201 203 207 213 217 230 254 273 288 288 289 295 296 298 298 297 297 297 297 301 301 304 307 308 306 303 299 297 302 305 307 308 308 304 304 303
196 200 197 199 199 202 207 209 212 217 222 231 238 254 266 275 274 282 288 291 290 290 292 294 300 302 304 303 304 301 300 301 299 295 292 292 295 295 298 298 302 305 301
202 206 203 202 207 212 214 215 219 223 229 235 241 254 264 269 274 278 277 286 288 288 290 295 300 302 306 306 305 302 295 294 291 292 288 284 288 291 293 291 288 286 287
206 207 210 210 217 219 218 222 223 227 232 236 245 252 259 264 270 273 277 287 285 283 283 288 293 299 302 306 302 298 295 291 287 282 278 281 281 282 277 275 276 275 276
209 210 219 219 221 223 226 228 227 229 235 239 247 252 256 263 270 273 274 280 282 279 282 283 286 291 301 306 306 304 304 303 303 298 294 292 291 292 290 295 290 293 291
216 223 224 225 226 229 233 231 230 233 236 239 245 251 259 265 268 270 267 276 278 278 280 284 291 294 300 307 313 316 310 308 307 304 303 299 295 295 291 284 280 278 280
220 222 225 230 232 232 233 232 231 231 233 239 246 252 259 266 269 262 257 262 267 275 279 288 289 296 304 310 312 310 305 308 311 306 304 303 303 300 299 296 291 282 279
221 223 226 228 229 228 228 227 227 227 231 238 247 256 263 266 265 256 248 250 263 268 277 283 287 298 306 310 307 307 311 310 313 311 309 307 307 307 307 306 302 294 288
220 221 223 225 226 226 222 220 219 225 229 238 243 250 251 254 263 249 249 253 255 265 275 282 288 298 305 303 304 311 314 319 319 317 311 308 310 308 308 306 303 299 294
223 223 226 227 221 222 220 221 224 227 231 234 231 237 245 246 253 256 262 260 264 271 279 272 283 299 299 298 304 311 314 315 317 311 311 311 311 312 308 308 306 306 302
229 228 224 225 224 224 225 227 230 236 236 234 239 244 241 244 249 251 249 263 270 274 269 283 294 303 299 301 304 309 313 314 314 313 312 309 310 312 310 312 308 305 297
230 226 224 222 224 222 228 237 239 243 245 243 249 255 266 267 265 259 260 264 271 270 269 279 285 282 286 296 303 306 307 310 311 311 309 309 309 309 309 310 310 305 301
228 229 219 208 210 216 226 236 253 258 250 251 256 258 259 264 264 262 259 262 268 256 266 271 272 270 278 287 293 297 300 304 306 306 307 308 309 308 307 308 310 308 305
200 191 200 211 215 225 234 245 255 262 266 264 264 259 259 260 261 259 256 260 246 250 266 269 264 268 274 280 286 291 296 303 305 305 307 308 308 310 309 308 312 309 306
177 187 199 213 231 242 253 266 268 270 272 277 280 272 271 264 262 260 257 255 247 245 254 257 261 268 275 282 287 292 294 298 300 304 304 308 310 313 310 311 311 308 306
179 207 209 229 260 280 280 277 277 274 273 272 272 271 269 270 264 254 244 245 247 249 254 255 262 270 277 284 289 292 295 299 302 301 307 312 313 313 310 311 311 309 308
178 237 267 274 277 278 275 273 276 276 275 275 273 273 272 264 260 256 246 236 245 252 254 257 264 272 279 284 288 291 292 295 299 304 314 314 313 312 311 312 309 309 308
263 309 312 304 291 285 281 279 278 278 278 279 280 279 276 272 268 261 247 242 251 256 258 262 269 274 278 282 286 286 290 294 300 307 313 317 323 322 312 316 316 316 317
41 358 323 303 291 282 281 283 281 278 279 279 279 278 273 267 265 263 260 253 255 260 266 270 274 277 280 283 285 286 288 293 298 301 307 316 320 322 313 317 320 321 324
58 328 264 268 273 277 290 289 283 281 281 278 278 272 268 266 263 260 259 258 263 268 272 274 276 278 281 283 283 286 288 291 296 297 305 310 316 311 321 329 333 334 334
288 279 278 278 284 297 291 285 284 283 280 277 275 271 269 266 263 263 266 267 270 273 275 277 278 280 281 282 284 286 287 288 289 294 300 313 307 309 327 336 343 349 351
273 280 282 291 295 286 279 279 281 282 282 281 278 276 273 272 269 267 268 272 276 278 279 279 280 282 283 282 283 284 282 282 288 291 292 305 297 306 319 332 344 354 359
Height
854 857 858 861 864 865 866 868 873 875 876 878 880 881 881 882 879 878 877 878 878 878 877 875 874 872 870 869 866 864 861 858 850 834 835 832 828 823 818 814 810 806 801
851 853 856 860 863 864 864 868 871 872 875 875 876 880 879 881 878 877 875 876 875 876 874 873 871 869 866 865 863 860 857 854 850 838 828 828 825 821 815 809 804 800 796
847 850 855 858 860 861 863 866 869 869 871 872 872 876 876 878 876 875 873 873 873 873 872 870 867 865 862 861 859 856 853 850 847 840 825 826 821 818 811 806 799 793 789
843 847 852 856 859 860 861 864 865 868 869 869 869 870 872 874 871 871 870 870 869 869 868 865 864 862 860 857 855 852 849 846 842 837 829 821 818 814 810 803 794 792 786
839 843 848 851 854 856 857 860 861 865 866 866 867 866 869 868 868 868 867 866 866 864 863 862 860 857 855 853 851 848 846 843 839 833 826 820 815 810 806 801 795 789 784
832 837 841 848 849 851 853 856 858 860 862 864 863 863 864 864 864 863 862 862 862 861 859 857 854 852 851 849 847 845 843 839 834 829 822 816 811 806 801 797 791 785 776
827 832 837 842 845 845 848 850 853 855 858 859 857 859 860 860 860 859 858 858 856 855 854 851 850 848 846 844 842 839 836 834 830 824 816 811 805 802 797 791 787 782 775
821 826 831 835 840 843 844 845 848 850 851 851 853 854 856 856 855 855 854 852 851 850 848 847 844 843 842 839 835 832 828 824 820 815 809 803 799 794 789 783 777 771 766
816 820 823 827 831 835 838 840 842 845 846 847 848 850 851 851 850 849 848 847 845 844 843 841 840 838 836 834 831 826 820 815 812 808 803 797 791 786 782 776 770 766 760
807 811 816 819 823 825 830 834 836 837 839 841 842 844 845 844 844 844 843 842 840 839 838 837 835 834 832 829 825 820 814 808 804 797 793 787 783 779 775 771 766 760 756
800 805 811 814 817 820 825 828 829 832 834 835 837 838 838 837 837 837 837 837 836 834 832 831 830 828 825 822 819 815 811 805 797 792 787 781 777 773 768 764 761 757 750
797 802 805 809 812 815 816 820 823 826 828 829 831 831 830 830 830 830 830 830 830 829 826 824 822 820 818 816 813 809 805 800 794 789 784 778 773 768 764 759 755 751 747
793 797 800 803 807 809 811 814 818 820 821 822 823 823 823 824 824 824 824 824 823 822 820 818 816 813 812 809 806 804 799 795 791 787 782 776 771 765 759 754 748 744 740
789 791 795 801 801 804 807 809 811 812 813 815 816 817 818 818 818 819 819 819 818 816 814 811 809 809 806 804 801 798 795 792 789 784 779 773 767 760 755 751 745 739 734
785 787 789 795 796 798 800 802 803 804 806 808 809 810 811 811 812 813 813 813 813 811 809 806 804 803 800 798 796 793 791 788 785 781 776 770 764 758 751 747 742 736 731
781 783 785 789 792 795 797 798 799 800 802 803 805 805 804 805 807 808 808 808 807 804 801 801 800 798 796 793 791 789 786 784 781 778 772 768 762 756 749 743 739 733 726
777 780 784 787 789 792 793 795 796 796 796 798 799 800 801 801 801 801 800 800 799 797 796 795 794 794 791 789 787 785 782 780 777 774 770 764 759 753 747 740 735 730 722
775 779 782 785 787 790 791 792 792 793 793 792 792 793 793 793 794 794 794 793 790 788 789 789 788 788 786 784 782 780 778 775 772 769 765 761 756 750 743 737 732 726 719
775 778 780 783 785 787 789 790 791 791 791 790 789 787 788 787 786 787 788 786 784 782 783 783 783 782 781 779 777 776 774 771 768 765 761 757 752 747 740 735 729 723 717
775 776 778 780 782 784 786 788 788 788 788 786 785 785 784 782 779 777 778 778 778 777 777 777 777 777 775 773 772 770 768 766 763 761 757 753 748 744 738 732 726 720 713
774 775 776 777 779 781 783 784 784 784 783 782 781 780 781 779 775 774 773 772 772 772 772 771 771 770 769 767 766 765 763 761 759 757 753 749 745 740 735 730 724 718 711
772 773 774 776 777 779 780 781 780 780 780 778 776 774 775 774 771 769 767 766 767 767 766 766 765 763 762 762 760 760 758 755 754 752 749 746 741 737 732 727 721 715 709
769 771 773 775 776 776 776 776 776 776 775 774 772 770 769 767 765 764 762 762 761 761 760 759 758 757 756 755 755 754 752 750 749 748 745 742 738 733 730 724 719 713 707
770 771 772 773 774 774 773 772 772 772 771 769 767 765 764 762 761 759 758 757 756 755 754 753 752 751 750 749 749 748 746 745 744 742 741 738 734 731 728 723 718 712 707
770 770 770 770 770 769 769 769 768 767 766 765 762 760 758 757 755 753 752 751 750 749 748 746 745 744 744 743 742 741 740 739 738 737 735 733 731 729 725 721 717 712 707
768 769 769 767 766 766 766 765 764 763 762 760 758 756 754 752 751 749 747 745 744 742 741 740 739 738 737 736 735 735 734 733 732 731 730 729 727 725 722 719 716 712 708